Location: Berkeley
(37.8716°N, 122.2727°W)
Time: 17:26:43
(UTC-07:00)

Envisat - Visible Passes

Search period start: 17 June 2018 00:00
Search period end: 27 June 2018 00:00
Orbit: 764 x 766 km, 98.2° (Epoch: 17 June)

Date Brightness Start Highest point End Pass type
(mag) Time Alt. Az. Time Alt. Az. Time Alt. Az.
17 Jun 5.7 21:54:08 10° WSW 21:56:18 13° W 21:58:29 10° WNW visible
18 Jun 4.9 21:14:52 10° SSW 21:19:16 30° W 21:23:42 10° NW visible
20 Jun 5.6 21:41:52 10° SW 21:45:03 16° W 21:48:13 10° NW visible
21 Jun 4.5 21:03:22 10° SSW 21:08:03 38° W 21:12:46 10° NNW visible
23 Jun 5.4 21:29:58 10° SW 21:33:47 21° W 21:37:36 10° NW visible
25 Jun 5.8 21:58:05 10° WSW 21:59:37 11° W 22:01:09 10° WNW visible
26 Jun 5.0 21:18:18 10° SSW 21:22:32 27° W 21:26:49 10° NW visible
